Location: Ahausen
(50.4985°N, 8.2722°E)
Time: 19:16:41
(UTC+00:00)

Cosmos 1269 Rocket - Pass Details

Date: 18 September 2020
Orbit: 772 x 780 km, 74.1° (Epoch: 21 October)

Event Time Altitude Azimuth Distance (km) Brightness Sun altitude
Rises 19:32:28 0° 338° (NNW) 3,275 8.1 -19.0°
Reaches altitude 10° 19:34:56 10° 343° (NNW) 2,344 7.1 -19.4°
Maximum altitude 19:40:08 52° 60° (ENE) 965 4.3 -20.1°
Enters shadow 19:41:31 41° 106° (ESE) 1,117 4.3 -20.3°
